Wind_Speed
9 9 9 10 11 11 11 11 10 11 11 11 11 10 11 11 11 12 12 13 13 14 15 15 16 16 17 17 16 17 17 17 16 16 16 17 17 16 16 17 16 16 15
8 8 8 9 9 10 10 10 10 10 10 11 11 11 11 11 11 12 13 13 14 14 15 16 16 17 17 17 17 17 16 17 17 17 17 16 16 16 16 17 16 15 14
9 9 9 9 9 9 9 9 10 10 10 10 11 11 12 12 12 13 13 13 14 14 15 15 16 16 17 16 16 17 16 16 16 16 16 16 15 16 16 15 15 15 14
9 9 8 9 9 9 9 9 9 10 10 10 11 11 12 12 12 13 13 13 14 15 15 15 16 16 16 16 16 16 15 15 15 15 16 16 16 15 15 14 14 15 14
9 9 9 9 9 9 10 10 10 10 11 11 11 11 12 12 12 13 13 13 13 14 14 15 15 16 17 16 16 16 16 16 16 17 16 16 15 14 14 14 13 14 14
11 11 11 10 10 10 11 11 11 11 11 12 12 12 12 12 13 13 13 13 13 14 14 14 15 16 16 16 16 16 16 16 16 16 16 15 15 14 14 14 13 13 13
12 11 11 11 11 11 11 12 12 12 12 12 13 13 13 13 14 14 14 14 14 14 14 15 15 15 16 16 16 15 15 15 15 15 15 15 13 12 13 13 13 13 13
12 12 12 11 11 12 12 12 12 13 13 13 13 13 13 14 14 14 14 14 14 14 14 15 14 15 15 15 15 15 16 15 15 15 15 14 14 13 14 14 14 14 14
13 13 13 13 13 13 13 13 13 13 13 14 14 14 14 14 15 14 14 14 14 15 15 15 15 15 15 15 14 15 15 15 16 15 15 14 13 14 14 14 14 15 15
14 14 14 14 14 14 14 14 14 14 14 15 15 15 15 15 15 15 15 15 14 14 14 15 15 15 15 15 15 15 15 15 15 15 15 15 15 14 14 13 14 15 15
14 14 15 15 15 14 14 14 14 14 15 15 15 16 16 16 16 15 15 15 15 15 15 14 15 15 16 16 16 16 15 15 15 15 15 15 15 15 16 16 15 15 15
14 15 15 15 15 15 15 15 15 15 15 16 16 17 17 17 17 16 16 16 16 16 16 16 16 16 17 17 17 16 16 16 15 15 15 15 15 16 16 16 16 16 16
15 16 16 15 16 16 16 16 16 16 17 17 17 17 18 18 18 18 17 17 17 17 18 18 18 18 18 17 17 17 17 17 17 16 16 16 16 16 16 16 16 16 16
16 16 17 16 16 17 17 17 18 17 18 18 18 18 18 18 18 18 18 18 18 18 18 18 18 18 18 17 17 17 17 17 17 17 17 17 16 16 16 16 16 16 17
17 17 18 18 18 17 18 18 18 19 19 18 18 18 19 18 18 18 19 19 18 18 18 18 18 17 17 17 17 17 17 16 16 17 17 16 16 16 16 16 16 16 16
19 19 19 19 19 18 19 19 19 19 19 19 18 18 18 18 18 18 18 18 18 18 18 17 17 17 18 17 17 17 17 17 16 16 16 15 16 16 16 16 16 16 16
20 20 20 20 20 20 19 19 19 20 19 19 19 19 19 18 18 18 18 18 18 18 18 18 17 17 18 18 18 17 16 16 17 16 16 15 15 15 15 15 15 15 15
22 22 22 21 21 20 20 20 21 20 20 19 19 19 19 19 18 18 17 17 17 17 18 18 18 18 18 18 18 17 16 16 16 16 16 16 16 16 16 16 16 17 16
22 23 22 22 23 23 22 21 21 20 20 20 20 20 19 18 18 17 18 18 18 18 18 18 18 18 18 18 18 18 17 17 17 17 17 17 17 17 17 17 17 17 17
23 23 23 23 24 24 23 22 21 20 20 20 19 19 19 18 18 18 18 19 20 20 19 19 19 19 18 19 19 18 18 17 18 18 18 18 18 18 18 18 18 18 18
24 24 23 23 24 23 22 22 21 21 20 20 20 19 19 19 19 19 19 20 20 19 19 19 19 18 19 19 18 18 18 17 17 17 18 18 18 18 19 19 19 19 20
24 24 23 23 23 22 22 21 21 21 21 21 21 20 20 19 20 20 20 20 19 19 19 19 19 19 19 19 19 19 19 18 18 18 18 18 19 19 19 19 20 20 21
24 24 23 23 23 23 23 23 22 21 22 22 22 21 21 20 20 20 20 21 21 21 20 20 20 20 20 20 20 19 19 19 18 18 18 18 18 19 19 19 20 20 21
25 25 24 24 23 24 24 23 23 22 22 22 22 22 22 22 22 22 22 22 22 21 21 21 21 21 21 21 21 20 20 19 19 19 20 19 19 19 19 19 20 20 20
26 26 26 25 25 25 25 25 24 24 23 23 23 23 23 23 23 23 23 22 22 22 22 22 22 22 22 21 21 21 20 20 20 20 20 20 20 20 20 20 21 22 21
27 27 27 27 26 25 25 26 26 26 25 25 25 25 25 25 25 25 24 23 23 23 24 23 23 23 23 22 22 22 22 22 21 22 22 22 22 22 22 22 22 22 23
Wind_Direction
282 282 280 278 279 279 279 282 283 285 286 284 285 286 287 286 282 281 282 281 276 275 275 274 275 275 274 272 271 271 272 271 271 273 276 272 271 269 267 270 272 270 270
282 282 282 280 282 282 283 283 284 287 289 287 286 287 286 285 284 284 286 284 280 276 276 277 277 275 275 273 271 272 272 270 271 272 274 273 269 265 265 267 266 267 267
283 282 281 279 281 283 285 283 285 290 289 286 286 287 288 288 288 288 288 287 285 281 279 278 278 276 274 272 272 273 271 269 269 269 269 269 267 265 265 266 267 264 265
282 284 283 280 280 283 284 283 286 288 287 288 289 289 287 288 288 289 289 287 286 286 285 282 280 278 277 274 272 273 272 271 271 269 269 268 265 262 263 264 265 263 264
281 282 281 280 281 284 283 283 285 285 285 287 289 290 289 290 290 292 291 289 287 286 288 286 285 283 281 280 278 275 273 273 273 273 273 270 265 263 263 264 265 262 264
279 280 279 279 280 282 283 284 286 287 286 287 288 288 289 289 291 293 292 291 290 290 288 287 287 286 285 284 282 279 276 275 276 277 276 274 272 266 262 264 265 266 266
277 276 278 279 280 282 284 285 287 287 287 287 287 288 289 291 291 292 292 291 291 290 288 287 288 289 288 286 284 284 281 279 279 278 277 276 270 269 268 270 266 266 267
276 274 276 278 279 282 284 285 286 287 288 288 288 289 290 290 291 291 291 291 291 289 289 289 288 289 290 286 283 283 281 279 276 273 275 271 267 269 273 272 269 267 267
279 275 275 277 278 280 283 285 285 286 286 287 288 290 290 290 292 292 292 292 291 290 288 288 288 288 288 287 284 284 281 279 275 271 272 271 270 270 271 271 267 266 267
280 277 276 277 277 279 282 284 286 285 286 286 287 290 289 289 291 292 291 290 290 289 289 289 287 287 288 286 285 284 279 276 276 274 271 270 267 267 266 264 265 264 264
282 279 279 280 278 278 281 283 284 285 286 287 288 289 290 289 289 289 290 290 290 289 288 288 288 286 286 286 284 282 279 277 278 275 272 270 269 267 266 267 268 269 267
287 283 281 284 284 283 282 281 283 286 286 287 288 289 290 290 289 288 288 289 290 290 288 286 286 286 286 284 284 281 278 278 279 277 274 272 271 270 269 269 268 268 269
286 285 283 283 283 284 285 283 282 284 285 287 288 288 288 289 288 287 288 288 288 288 288 288 286 286 287 286 285 284 282 280 278 278 275 274 273 271 269 268 268 269 271
283 284 283 281 282 284 285 285 285 284 284 286 286 285 284 286 287 287 287 288 287 287 287 288 288 289 289 288 286 286 284 281 277 275 276 275 273 271 269 268 267 269 271
282 284 283 282 281 282 285 287 288 288 286 289 290 288 287 286 286 286 287 288 288 288 288 289 289 289 289 289 289 288 285 282 281 278 277 273 270 270 269 268 268 269 271
279 282 284 283 282 283 284 287 289 287 288 289 289 289 287 287 287 287 287 287 288 289 289 289 289 289 288 288 289 288 285 282 284 281 277 273 272 271 272 269 268 268 271
277 280 282 283 281 280 282 284 286 287 287 287 287 286 286 287 288 288 288 287 287 288 290 291 290 290 289 288 288 288 287 284 282 280 276 274 272 271 272 272 269 270 272
276 278 280 280 280 278 281 281 283 286 287 286 285 286 286 286 286 286 286 287 287 287 288 289 290 291 288 286 286 287 287 285 282 282 279 274 272 272 273 272 271 270 271
275 276 278 279 279 277 278 279 280 283 285 285 286 286 285 283 283 284 285 286 286 286 286 286 288 291 289 285 284 283 282 281 279 279 278 276 273 272 273 273 273 272 271
274 275 277 277 277 276 275 277 280 283 285 286 286 285 284 283 283 284 285 287 288 286 286 287 288 288 289 286 283 282 279 280 279 277 278 279 276 273 272 274 272 272 273
273 274 276 276 276 275 275 278 281 282 283 284 284 282 282 281 282 283 285 287 287 286 285 286 287 287 288 287 283 281 279 279 279 278 277 278 277 274 273 273 274 275 274
273 274 275 274 273 274 276 279 281 281 280 280 280 280 280 281 281 282 285 287 287 285 285 285 286 287 287 286 283 280 279 277 277 277 277 277 276 274 273 273 273 274 273
273 274 275 273 272 273 275 277 278 279 278 278 278 278 279 279 281 282 284 286 286 285 285 285 286 286 286 286 282 279 278 277 276 276 276 277 278 276 273 273 273 273 273
272 274 273 273 273 274 274 275 275 275 276 276 276 276 275 276 279 282 284 286 286 285 285 285 286 284 284 283 281 278 277 277 276 276 277 277 277 278 277 276 275 275 277
272 272 273 273 272 272 272 272 272 273 275 275 274 274 274 275 278 281 283 284 284 283 282 283 285 284 283 282 280 277 276 277 276 275 277 279 279 278 278 277 279 277 279
271 271 271 272 271 270 272 272 271 273 274 275 274 272 274 276 278 280 281 282 283 283 283 283 282 283 282 282 280 278 276 276 276 275 276 278 279 278 278 278 279 279 279
Height
5848 5848 5848 5848 5848 5848 5848 5849 5849 5849 5849 5849 5849 5849 5849 5849 5849 5848 5848 5848 5848 5848 5848 5848 5848 5847 5847 5847 5847 5847 5848 5848 5848 5848 5848 5848 5848 5849 5849 5850 5850 5850 5851
5846 5846 5846 5846 5846 5846 5846 5846 5847 5847 5847 5847 5847 5847 5847 5846 5846 5846 5846 5845 5845 5845 5845 5844 5844 5844 5844 5843 5843 5844 5844 5844 5844 5844 5845 5844 5844 5845 5845 5846 5846 5847 5847
5844 5844 5844 5844 5844 5845 5845 5845 5845 5845 5845 5845 5844 5844 5844 5844 5844 5844 5843 5843 5842 5842 5841 5841 5841 5841 5840 5840 5840 5841 5841 5841 5840 5841 5841 5841 5841 5841 5842 5842 5843 5843 5844
5842 5842 5842 5842 5843 5843 5843 5843 5843 5843 5842 5842 5842 5842 5841 5841 5841 5841 5840 5840 5840 5839 5838 5838 5838 5837 5837 5837 5837 5837 5837 5838 5837 5837 5837 5837 5837 5838 5838 5839 5839 5840 5841
5840 5840 5841 5841 5841 5841 5841 5841 5841 5841 5840 5840 5840 5839 5839 5839 5838 5838 5837 5837 5837 5836 5836 5835 5835 5834 5834 5834 5833 5834 5834 5834 5834 5834 5833 5833 5833 5834 5834 5835 5836 5836 5837
5839 5839 5839 5839 5839 5839 5839 5839 5839 5838 5838 5838 5838 5837 5837 5836 5836 5835 5834 5834 5833 5833 5832 5832 5832 5831 5831 5830 5830 5830 5830 5830 5830 5830 5829 5829 5829 5829 5830 5831 5832 5833 5833
5836 5836 5836 5836 5836 5836 5836 5836 5836 5836 5836 5835 5835 5835 5834 5833 5833 5832 5831 5831 5830 5830 5829 5829 5828 5828 5828 5827 5827 5827 5827 5827 5827 5826 5826 5825 5825 5825 5827 5828 5828 5829 5830
5834 5834 5834 5834 5834 5834 5834 5834 5834 5833 5833 5832 5832 5832 5831 5831 5830 5829 5828 5828 5827 5827 5826 5826 5825 5825 5824 5824 5824 5823 5823 5823 5823 5823 5822 5822 5822 5823 5824 5824 5825 5826 5826
5831 5831 5831 5831 5831 5831 5831 5831 5831 5830 5830 5830 5829 5829 5828 5828 5827 5826 5825 5825 5824 5824 5823 5823 5822 5822 5821 5821 5820 5820 5820 5820 5819 5819 5819 5819 5819 5820 5820 5820 5821 5821 5822
5828 5828 5828 5828 5828 5828 5828 5828 5828 5827 5827 5826 5826 5825 5825 5824 5824 5823 5822 5821 5821 5820 5820 5819 5819 5818 5818 5818 5817 5817 5816 5815 5815 5815 5815 5815 5816 5816 5816 5816 5816 5817 5818
5825 5825 5825 5825 5825 5825 5825 5825 5824 5824 5823 5823 5822 5822 5821 5820 5819 5819 5818 5818 5817 5817 5816 5816 5815 5815 5815 5814 5814 5813 5812 5812 5811 5811 5811 5812 5812 5812 5812 5812 5813 5813 5813
5821 5821 5821 5821 5821 5821 5821 5821 5821 5820 5820 5819 5818 5818 5817 5816 5815 5815 5814 5814 5813 5813 5812 5812 5811 5811 5811 5810 5810 5809 5809 5808 5808 5808 5808 5808 5808 5808 5808 5808 5808 5809 5810
5818 5818 5818 5817 5817 5817 5817 5817 5817 5816 5815 5815 5814 5813 5812 5811 5811 5810 5810 5810 5809 5809 5808 5808 5807 5806 5806 5806 5805 5805 5804 5804 5803 5803 5803 5803 5803 5804 5804 5804 5804 5805 5806
5814 5814 5814 5814 5813 5813 5813 5813 5812 5812 5811 5810 5809 5808 5807 5807 5806 5806 5805 5805 5804 5804 5804 5803 5802 5802 5801 5801 5800 5800 5799 5799 5798 5798 5799 5799 5799 5799 5800 5800 5800 5801 5801
5810 5810 5810 5810 5809 5809 5809 5808 5808 5807 5806 5805 5804 5803 5803 5802 5801 5801 5800 5800 5800 5800 5799 5798 5798 5797 5796 5796 5795 5795 5794 5794 5794 5794 5794 5794 5794 5795 5795 5795 5796 5797 5797
5805 5805 5805 5805 5804 5804 5804 5804 5803 5802 5802 5801 5800 5799 5798 5797 5796 5796 5795 5795 5795 5795 5794 5794 5793 5792 5792 5791 5791 5790 5789 5789 5789 5789 5789 5789 5789 5790 5790 5791 5791 5792 5792
5800 5800 5800 5800 5800 5800 5799 5799 5798 5797 5796 5795 5794 5794 5793 5792 5791 5791 5790 5790 5790 5789 5789 5789 5788 5787 5787 5786 5785 5785 5784 5784 5784 5784 5784 5784 5785 5785 5785 5786 5787 5787 5788
5795 5795 5795 5795 5794 5794 5794 5793 5793 5792 5791 5790 5789 5788 5787 5787 5786 5786 5785 5785 5784 5784 5784 5784 5783 5782 5781 5781 5781 5780 5780 5779 5779 5779 5779 5780 5780 5780 5781 5781 5782 5782 5783
5789 5789 5789 5788 5788 5788 5787 5787 5786 5786 5785 5784 5783 5782 5782 5781 5781 5780 5780 5779 5779 5779 5778 5778 5778 5777 5776 5776 5775 5775 5775 5775 5774 5774 5774 5774 5775 5775 5776 5776 5776 5777 5778
5782 5783 5782 5782 5781 5781 5780 5780 5780 5779 5779 5778 5777 5777 5776 5776 5776 5775 5775 5774 5773 5773 5773 5772 5772 5772 5771 5770 5770 5770 5770 5769 5769 5769 5769 5769 5769 5770 5770 5771 5771 5772 5772
5775 5776 5775 5775 5774 5774 5774 5774 5773 5773 5772 5772 5771 5771 5771 5770 5770 5769 5769 5769 5768 5767 5767 5766 5766 5766 5765 5764 5764 5764 5764 5764 5763 5763 5764 5764 5764 5764 5765 5765 5765 5766 5766
5768 5768 5768 5768 5768 5768 5767 5767 5767 5767 5766 5766 5766 5765 5765 5765 5764 5764 5763 5763 5762 5762 5761 5761 5760 5760 5759 5758 5758 5757 5757 5758 5758 5758 5758 5758 5758 5759 5759 5759 5759 5760 5760
5761 5761 5761 5761 5761 5761 5761 5761 5761 5760 5760 5760 5759 5759 5759 5759 5758 5758 5757 5757 5756 5755 5755 5755 5754 5753 5753 5752 5752 5751 5751 5751 5752 5752 5752 5752 5753 5753 5753 5753 5753 5753 5753
5754 5754 5754 5754 5754 5754 5754 5754 5754 5754 5754 5753 5753 5753 5753 5752 5752 5752 5751 5751 5750 5749 5749 5748 5748 5747 5746 5745 5745 5745 5745 5745 5746 5746 5746 5746 5746 5747 5747 5747 5747 5747 5747
5746 5746 5747 5747 5747 5747 5747 5747 5747 5747 5747 5747 5747 5746 5746 5746 5746 5745 5744 5744 5743 5743 5742 5741 5741 5740 5739 5739 5738 5738 5739 5739 5739 5740 5740 5740 5740 5740 5740 5741 5740 5740 5740
5738 5738 5738 5739 5739 5740 5739 5739 5739 5739 5740 5739 5739 5739 5739 5739 5738 5738 5737 5737 5736 5736 5735 5734 5734 5733 5732 5732 5731 5732 5732 5732 5733 5733 5733 5733 5733 5733 5734 5734 5734 5734 5733